Wetbulb
39.28 35.93 33.84 37.59 37.28 36.40 34.84 32.59 33.00 35.48 38.98 36.63 36.40 36.83 40.79 39.48 36.74 36.39 36.94 36.45 37.80 38.72 39.77 39.74 40.66 41.16 42.08 41.48 40.78 40.73 43.95 44.32 43.56 42.63 42.10 41.65 39.00 39.51 39.48 39.87 40.21 40.34 40.11 39.55
36.46 33.33 39.66 40.21 38.54 36.75 35.12 33.19 33.23 35.89 38.01 37.15 36.61 36.33 38.26 38.28 37.94 39.76 40.53 39.82 39.63 38.71 36.15 38.99 39.23 40.02 41.02 42.53 41.95 40.48 43.67 43.53 43.64 44.13 40.37 39.57 39.52 38.17 38.06 38.15 37.71 37.90 37.65 36.87
36.01 39.26 41.01 39.78 36.51 35.33 33.82 32.68 32.52 34.58 35.74 35.21 33.46 33.81 34.87 38.11 39.37 40.39 40.92 43.22 42.76 40.37 37.19 37.72 38.18 39.31 39.76 42.21 42.81 42.64 43.31 43.76 43.58 40.51 38.92 36.72 37.40 37.04 36.04 35.61 35.10 35.29 35.46 34.79
36.40 39.80 39.00 37.31 35.64 37.13 32.16 37.09 36.37 35.07 32.87 29.17 33.50 29.64 33.64 36.47 37.31 37.39 41.40 42.65 40.88 37.71 38.29 38.45 38.52 38.39 39.66 41.87 43.97 43.84 44.00 43.73 40.05 39.70 38.69 38.39 37.96 35.08 34.53 34.05 33.71 33.30 33.81 32.73
36.08 36.46 36.86 35.18 36.56 38.96 35.13 37.37 35.68 33.53 30.94 28.71 27.94 27.55 31.51 34.57 34.66 38.07 42.60 41.56 38.20 37.86 38.11 37.89 38.55 39.69 40.04 41.25 43.58 43.66 43.69 40.21 39.41 39.32 39.37 38.58 36.86 33.81 33.33 32.74 31.90 31.57 31.43 30.96
36.66 38.10 38.94 38.94 37.99 39.19 38.27 35.40 33.79 31.55 30.06 25.76 30.32 30.52 36.13 32.99 36.07 38.40 41.80 39.74 37.62 36.67 36.85 38.26 38.87 39.45 39.39 40.93 43.38 42.59 40.28 38.99 39.20 38.76 38.09 36.43 33.69 32.20 31.27 30.79 29.86 29.76 29.68 28.47
34.47 35.67 36.06 37.90 35.79 36.15 36.03 33.30 26.33 24.32 22.84 25.45 28.08 27.84 36.55 38.10 39.14 39.16 39.68 38.84 37.31 35.30 35.24 36.16 36.47 38.06 38.68 41.13 42.39 39.63 39.20 37.42 38.19 37.03 35.88 34.96 33.87 33.17 31.76 30.74 29.74 28.26 27.24 26.95
30.37 29.07 35.23 37.51 37.76 35.75 32.84 33.18 27.08 19.55 21.27 24.63 28.72 26.24 31.95 36.85 38.96 38.58 37.71 37.63 35.76 33.52 34.80 35.76 36.88 38.17 39.11 41.34 41.39 39.17 38.54 37.26 36.85 35.91 34.75 34.38 33.61 32.70 31.72 31.15 29.88 28.38 27.86 27.71
29.55 30.04 34.24 35.11 35.62 39.40 32.03 30.24 35.36 28.63 16.89 20.58 27.61 30.87 35.97 36.57 37.09 39.38 34.87 33.64 33.38 32.42 34.05 35.22 36.38 37.59 39.12 40.80 40.48 39.48 38.15 36.17 36.05 35.20 34.19 33.07 32.71 31.64 30.41 29.24 28.34 27.71 27.32 27.54
34.78 29.70 32.52 33.89 36.69 35.52 34.97 36.42 29.14 28.67 18.26 18.53 25.63 26.83 30.86 35.34 38.13 37.24 35.31 34.21 32.90 32.43 33.45 34.38 35.25 35.95 37.76 38.30 39.65 39.05 37.14 34.87 34.97 34.34 33.72 32.56 31.80 31.40 29.93 28.64 27.40 27.17 26.99 27.15
36.39 33.97 30.10 32.60 31.46 31.84 32.18 30.42 31.31 33.52 27.81 21.35 19.48 28.91 34.31 36.40 36.40 35.82 36.29 35.62 33.48 32.40 33.08 33.88 34.53 35.07 35.87 35.48 35.31 35.93 35.23 35.11 34.09 33.61 32.96 31.78 30.82 29.91 28.81 28.01 27.19 26.77 26.55 25.77
38.16 33.79 24.45 30.01 33.61 34.63 33.85 33.98 35.66 30.95 25.28 26.41 25.68 31.26 35.48 36.25 35.11 35.60 36.36 35.61 33.01 32.91 32.56 32.69 33.09 32.19 31.26 31.78 32.89 33.45 34.14 33.94 33.92 33.33 32.25 31.18 30.16 28.53 27.60 27.04 26.61 26.35 25.50 25.30
39.55 34.66 30.46 32.25 34.31 35.20 33.06 33.81 37.15 34.70 31.98 27.36 26.02 30.89 34.53 34.72 35.65 35.76 35.52 33.20 33.05 31.93 30.57 30.65 30.72 31.41 31.58 31.07 31.75 32.52 32.92 33.22 33.36 32.46 31.29 30.12 29.08 27.67 27.01 26.39 25.84 25.71 24.82 24.12
42.72 35.90 31.40 31.18 31.44 33.43 30.71 32.91 34.89 35.85 31.18 29.22 31.98 35.01 36.69 34.38 35.19 36.65 35.07 33.27 32.23 31.12 30.77 29.90 30.00 31.01 31.26 31.54 31.23 31.37 31.56 32.53 32.36 31.52 30.94 29.28 27.56 27.33 26.82 26.03 25.26 24.83 24.36 23.70
40.85 34.03 34.50 35.62 34.17 32.85 31.26 33.39 34.81 33.49 34.82 32.48 35.47 34.47 38.75 40.96 39.38 40.12 36.96 34.09 32.34 31.07 30.24 30.25 30.11 30.67 30.75 30.63 31.02 31.32 31.00 30.60 31.17 31.08 29.79 28.98 27.67 27.03 26.07 25.16 25.10 24.29 23.49 23.38
40.48 34.99 34.87 34.97 36.34 34.29 33.51 33.23 33.91 35.48 36.14 36.49 37.08 35.95 43.03 40.62 39.73 35.98 38.07 35.58 32.95 32.76 32.44 31.72 31.09 30.38 30.50 30.90 30.64 30.73 30.53 29.37 29.79 29.96 28.75 28.25 27.20 26.23 25.58 25.11 24.02 23.26 22.81 22.45
35.92 35.67 33.35 32.11 36.00 35.03 30.47 34.94 35.97 34.41 36.85 36.46 32.82 37.82 42.35 38.99 38.82 39.68 37.90 35.41 34.49 34.46 33.91 31.68 31.21 30.92 31.30 31.44 31.67 30.46 30.25 29.43 28.88 28.67 28.13 27.26 26.85 25.80 25.21 24.66 23.45 23.14 22.59 22.88
35.74 35.74 35.08 32.11 32.74 25.81 34.66 36.94 39.07 37.55 38.32 38.28 38.51 40.39 41.60 39.81 41.79 40.71 37.08 37.04 35.99 35.73 35.30 34.23 33.47 32.86 31.85 32.25 31.58 31.58 29.91 29.19 29.41 29.02 27.92 27.60 26.79 25.98 24.78 23.91 23.51 23.02 22.81 21.75
38.65 36.05 33.36 30.91 30.49 31.65 32.27 29.69 32.25 33.00 34.61 39.43 38.95 39.43 40.33 38.47 33.86 37.69 36.83 37.01 38.21 37.08 37.44 37.36 35.88 34.00 31.44 31.39 31.47 29.97 28.42 28.91 28.78 27.91 27.75 27.70 27.35 26.20 24.57 23.92 23.29 23.00 22.35 21.52
34.38 36.98 32.75 30.50 28.37 26.16 30.68 29.70 32.95 35.41 31.22 34.86 38.95 39.93 40.13 34.90 32.57 38.73 35.46 34.17 34.78 35.21 35.32 34.70 32.51 30.69 30.57 30.15 29.93 29.03 27.82 27.88 28.01 28.53 28.74 28.62 28.14 27.20 25.28 24.68 23.43 23.56 23.08 22.33
28.55 29.65 27.41 30.06 29.14 29.26 28.53 28.26 33.16 28.13 29.66 25.50 31.41 36.96 33.11 34.32 38.29 35.33 32.58 33.36 32.04 32.67 32.13 31.10 30.38 29.68 29.50 29.05 28.95 27.69 27.32 27.28 29.47 29.53 28.82 28.40 28.48 27.75 26.50 25.55 24.34 23.30 22.59 21.69
27.58 27.22 26.96 28.92 26.96 24.87 27.26 28.59 30.84 32.11 26.29 28.01 28.78 31.49 30.24 31.15 31.63 30.72 30.85 32.72 32.77 33.15 32.04 29.63 27.15 26.58 26.84 28.83 29.11 28.09 27.37 29.43 29.77 29.71 29.02 28.72 28.79 28.30 27.15 25.87 24.40 23.46 22.35 20.85
26.45 29.91 27.56 29.31 29.78 32.80 30.12 30.30 33.29 32.67 30.92 31.89 32.25 32.86 32.56 32.55 32.40 31.92 32.18 31.82 31.84 29.20 28.83 25.98 28.11 26.28 25.81 27.50 30.14 28.96 28.54 30.19 30.28 30.40 30.23 29.59 29.29 29.13 27.94 26.19 24.10 22.09 21.88 21.06
29.73 31.20 31.13 31.24 31.79 33.02 31.26 31.15 30.35 32.64 31.97 31.98 32.27 33.43 33.78 32.97 31.73 30.52 28.05 28.46 27.79 23.95 24.27 22.02 24.06 23.79 22.45 22.44 24.35 23.45 25.31 27.53 28.98 28.57 28.75 28.89 28.12 27.43 26.57 26.19 24.86 22.89 20.59 19.77
30.40 30.47 28.90 27.45 28.74 28.21 30.80 30.16 31.03 31.00 30.13 28.51 27.69 29.54 31.39 31.82 27.88 27.38 25.83 25.03 26.44 24.86 22.09 22.27 23.10 22.32 21.44 19.24 19.23 19.69 22.18 25.40 25.94 25.60 23.58 23.97 24.99 24.44 22.50 23.32 22.39 21.20 21.24 21.97
26.98 27.69 28.26 28.73 31.59 32.13 32.28 32.97 31.14 30.92 27.93 28.08 27.72 25.09 26.11 30.04 29.25 25.65 24.31 24.90 23.97 22.92 20.36 20.26 19.27 19.37 17.53 17.98 17.68 17.30 20.72 23.40 21.77 18.12 18.46 19.77 18.53 18.06 17.75 16.16 10.26 24.19 21.90 24.14
MSLP
1017.64 1018.35 1018.51 1018.13 1018.27 1018.42 1018.82 1019.13 1019.05 1018.34 1017.87 1018.19 1017.93 1017.62 1016.98 1017.26 1017.99 1018.20 1018.30 1018.45 1018.41 1018.38 1018.66 1019.74 1020.45 1021.06 1021.65 1022.12 1022.45 1022.66 1022.70 1022.87 1023.01 1023.39 1023.82 1024.24 1024.71 1025.06 1025.22 1025.46 1025.55 1025.73 1026.07 1026.44
1018.45 1018.13 1017.47 1017.94 1018.43 1018.82 1018.97 1019.18 1019.11 1018.37 1018.01 1018.35 1017.61 1016.96 1016.56 1016.65 1016.56 1016.20 1016.13 1016.38 1016.48 1017.37 1018.22 1019.19 1020.13 1020.78 1021.23 1021.65 1022.05 1022.44 1022.54 1022.75 1022.99 1023.22 1023.66 1024.05 1024.68 1025.49 1025.74 1026.02 1026.22 1026.48 1026.74 1026.91
1017.68 1017.03 1016.94 1017.87 1018.52 1019.03 1019.09 1019.19 1019.11 1018.88 1018.38 1018.24 1017.77 1015.89 1015.54 1014.85 1014.93 1014.45 1014.28 1013.76 1014.51 1015.35 1017.04 1018.57 1019.62 1020.19 1020.82 1021.15 1021.43 1021.88 1022.24 1022.58 1022.85 1023.17 1023.73 1024.53 1025.07 1025.78 1026.23 1026.72 1026.99 1027.41 1027.54 1027.70
1017.76 1017.03 1017.27 1017.71 1018.07 1018.39 1018.80 1018.36 1018.80 1019.14 1019.63 1019.22 1018.32 1014.87 1014.32 1014.17 1013.86 1013.63 1012.74 1012.53 1013.57 1014.78 1016.07 1017.31 1018.49 1019.53 1020.02 1020.50 1021.01 1021.50 1022.03 1022.39 1022.76 1023.00 1023.61 1024.03 1024.42 1025.43 1026.35 1026.95 1027.59 1027.99 1028.12 1028.41
1016.48 1016.86 1017.18 1017.40 1017.27 1017.90 1018.06 1018.27 1018.91 1019.31 1019.88 1019.75 1018.94 1018.24 1012.99 1013.15 1013.31 1012.51 1011.22 1011.74 1012.77 1013.76 1014.73 1015.96 1017.02 1017.90 1019.18 1020.07 1020.51 1021.09 1021.69 1022.22 1022.68 1023.00 1023.44 1023.96 1024.65 1025.58 1026.44 1027.30 1027.95 1028.62 1028.95 1029.13
1016.54 1016.38 1016.44 1016.40 1016.95 1017.28 1017.85 1018.62 1019.56 1020.28 1020.59 1019.66 1018.53 1018.14 1008.62 1012.57 1011.92 1011.43 1010.82 1011.49 1012.44 1013.49 1014.38 1015.54 1016.76 1017.91 1018.95 1019.69 1020.04 1020.61 1021.29 1021.98 1022.57 1023.03 1023.49 1024.02 1024.64 1025.49 1026.50 1027.53 1028.19 1028.96 1029.31 1029.66
1016.81 1016.36 1016.29 1016.36 1017.09 1017.81 1017.90 1019.09 1020.49 1021.11 1021.47 1019.23 1018.32 1017.72 1011.56 1011.86 1011.22 1011.05 1011.13 1011.55 1012.34 1013.54 1014.68 1015.72 1016.63 1017.58 1018.55 1019.25 1019.70 1020.21 1020.87 1021.71 1022.32 1022.90 1023.59 1024.21 1024.86 1025.44 1026.06 1026.82 1027.41 1028.28 1029.09 1029.64
1016.48 1016.45 1015.92 1015.83 1015.68 1016.60 1017.66 1018.14 1019.61 1020.65 1021.47 1019.98 1018.84 1015.99 1012.02 1011.12 1010.59 1010.29 1010.95 1011.71 1012.59 1013.80 1014.74 1015.56 1016.33 1017.03 1017.88 1018.59 1019.23 1019.77 1020.43 1021.27 1021.96 1022.55 1023.30 1024.10 1024.81 1025.35 1026.14 1026.78 1027.42 1027.99 1028.60 1029.25
1015.58 1015.58 1015.29 1015.44 1015.36 1015.81 1017.55 1017.98 1018.16 1019.82 1021.58 1020.90 1017.56 1014.58 1012.14 1011.04 1011.03 1010.22 1011.16 1012.19 1013.25 1014.00 1014.80 1015.59 1016.32 1016.79 1017.33 1017.93 1018.59 1019.29 1020.07 1020.86 1021.58 1022.31 1023.17 1024.03 1024.81 1025.35 1026.00 1026.97 1027.74 1028.27 1028.84 1029.35
1014.25 1015.34 1015.54 1015.67 1015.65 1016.16 1016.06 1016.82 1018.39 1019.41 1020.69 1020.00 1016.71 1015.06 1012.86 1011.39 1010.47 1010.41 1011.30 1012.17 1013.08 1014.11 1015.00 1015.67 1016.23 1016.72 1017.19 1017.64 1018.27 1019.08 1019.66 1020.41 1021.27 1022.18 1023.02 1023.89 1024.82 1025.57 1026.28 1027.04 1027.69 1028.30 1028.81 1029.20
1013.98 1014.95 1016.26 1016.15 1015.71 1015.60 1016.42 1016.54 1017.25 1017.89 1018.93 1018.79 1017.27 1012.86 1011.10 1010.70 1010.64 1010.90 1011.03 1011.65 1013.04 1013.91 1014.50 1015.09 1016.21 1016.87 1016.95 1017.35 1017.90 1018.48 1019.27 1020.16 1021.14 1021.87 1022.72 1023.71 1024.81 1025.72 1026.52 1027.17 1027.81 1028.36 1028.97 1029.59
1013.85 1014.80 1016.09 1015.83 1015.43 1015.25 1015.18 1015.12 1015.89 1017.09 1018.06 1017.87 1016.90 1010.34 1009.94 1010.17 1010.41 1010.68 1010.72 1011.42 1012.61 1014.02 1014.57 1015.18 1015.83 1016.44 1017.32 1018.00 1018.39 1019.05 1019.33 1019.77 1020.31 1021.09 1022.06 1023.05 1023.96 1024.83 1025.71 1026.49 1027.42 1028.33 1029.07 1029.77
1013.27 1014.85 1015.82 1015.87 1015.94 1015.61 1015.03 1014.91 1014.52 1015.32 1016.39 1015.88 1016.04 1009.53 1009.82 1009.89 1010.03 1010.28 1010.92 1011.61 1012.54 1013.69 1014.68 1015.48 1016.09 1016.50 1016.58 1017.03 1017.65 1018.02 1018.86 1019.74 1020.39 1021.09 1021.89 1022.99 1023.87 1024.69 1025.58 1026.46 1027.26 1027.92 1028.75 1029.68
1012.12 1013.29 1013.33 1013.14 1013.01 1013.41 1014.38 1013.82 1013.77 1014.15 1014.99 1014.24 1012.12 1009.83 1009.23 1009.70 1009.94 1009.90 1010.53 1011.57 1012.55 1013.51 1014.32 1015.37 1015.83 1016.11 1016.72 1017.15 1017.35 1017.91 1018.41 1018.92 1019.69 1020.72 1021.90 1022.93 1023.89 1024.71 1025.68 1026.47 1027.24 1028.07 1028.61 1029.28
1011.78 1012.53 1012.73 1012.19 1012.54 1012.88 1012.96 1012.78 1012.91 1012.95 1011.85 1012.91 1008.64 1010.51 1006.14 1008.78 1009.50 1009.27 1010.06 1011.04 1012.20 1013.18 1013.51 1013.82 1014.48 1015.20 1015.54 1016.16 1017.11 1017.51 1018.12 1018.84 1019.72 1020.66 1021.27 1021.97 1023.18 1024.15 1025.29 1026.36 1027.22 1028.06 1029.10 1029.59
1011.31 1011.46 1012.01 1011.70 1012.00 1012.47 1012.67 1012.33 1011.35 1011.04 1011.00 1011.22 1009.03 1008.97 1005.08 1007.65 1008.40 1009.21 1009.58 1010.44 1011.47 1012.07 1012.34 1012.95 1013.72 1014.51 1014.80 1015.28 1015.70 1016.91 1017.82 1018.41 1019.36 1020.17 1021.17 1022.33 1023.38 1024.32 1025.23 1026.42 1027.30 1028.04 1029.05 1029.92
1011.15 1010.93 1011.75 1010.55 1010.82 1011.85 1011.82 1008.05 1010.32 1010.39 1010.26 1009.67 1009.33 1005.76 1004.89 1007.61 1008.02 1008.37 1008.82 1009.64 1010.45 1011.00 1011.33 1011.88 1012.32 1012.59 1013.55 1014.00 1014.65 1015.16 1016.82 1017.80 1018.63 1019.77 1020.70 1021.82 1022.96 1024.34 1025.17 1026.03 1027.16 1028.02 1028.80 1029.53
1010.94 1010.58 1010.96 1010.09 1010.46 1009.12 1006.81 1007.42 1007.89 1008.76 1008.20 1008.48 1008.07 1006.22 1005.60 1007.14 1007.19 1007.34 1008.36 1009.11 1009.26 1009.85 1010.09 1010.23 1010.73 1011.38 1011.91 1013.02 1014.26 1015.00 1015.85 1017.07 1018.00 1019.21 1020.07 1020.99 1022.30 1023.66 1024.82 1025.67 1026.57 1027.56 1028.68 1029.43
1010.77 1010.60 1009.46 1009.29 1008.25 1007.60 1007.63 1007.35 1007.86 1008.15 1007.18 1006.71 1007.26 1006.77 1006.07 1007.17 1007.94 1006.89 1007.95 1008.18 1008.53 1008.85 1008.88 1008.97 1009.43 1010.24 1011.51 1012.26 1013.49 1014.89 1015.93 1016.47 1017.43 1018.48 1019.54 1020.50 1021.58 1022.96 1024.12 1025.06 1026.13 1027.12 1028.23 1029.22
1009.94 1009.52 1009.54 1008.40 1007.33 1007.13 1006.47 1006.55 1006.65 1007.70 1007.57 1005.49 1006.63 1006.40 1006.05 1007.67 1008.30 1006.57 1007.26 1007.61 1008.18 1008.59 1008.83 1008.99 1009.29 1010.16 1011.11 1012.14 1013.12 1014.36 1015.58 1016.43 1017.14 1017.92 1018.87 1019.82 1021.02 1022.10 1023.48 1024.51 1025.54 1026.46 1027.54 1028.31
1009.57 1009.51 1008.68 1007.70 1007.24 1007.32 1006.98 1007.04 1006.88 1008.02 1006.81 1006.08 1005.92 1005.99 1006.77 1007.77 1007.14 1007.39 1007.32 1007.65 1008.21 1008.55 1008.98 1009.21 1009.55 1009.94 1010.79 1012.09 1013.11 1014.30 1015.51 1015.96 1016.29 1017.59 1018.79 1019.90 1020.90 1022.01 1023.16 1024.36 1025.43 1026.25 1027.21 1028.12
1008.59 1008.73 1008.51 1008.31 1007.31 1006.96 1006.88 1007.60 1007.22 1006.31 1006.45 1006.44 1006.30 1006.80 1007.13 1007.13 1007.65 1007.98 1008.52 1008.34 1008.64 1009.10 1009.64 1010.15 1010.63 1010.92 1011.30 1011.93 1012.92 1013.95 1014.81 1015.62 1016.29 1017.14 1018.77 1019.88 1020.92 1021.88 1022.96 1024.11 1025.18 1026.01 1026.73 1027.61
1008.57 1007.95 1007.79 1007.24 1006.24 1005.82 1005.83 1005.88 1005.96 1005.93 1006.23 1006.60 1006.54 1006.76 1007.05 1007.69 1008.00 1008.46 1008.97 1008.98 1009.09 1009.67 1010.33 1010.82 1011.44 1011.56 1012.19 1012.55 1013.19 1013.82 1014.63 1015.71 1016.54 1017.23 1018.19 1019.19 1020.24 1021.25 1022.25 1023.49 1024.47 1025.50 1026.27 1026.95
1008.31 1008.26 1007.52 1007.12 1006.51 1006.20 1005.98 1005.87 1005.93 1005.79 1005.90 1006.44 1006.48 1007.05 1007.54 1007.84 1008.24 1008.50 1009.53 1009.60 1009.56 1010.39 1010.96 1011.39 1012.10 1012.15 1012.99 1013.27 1013.66 1014.00 1014.65 1015.70 1016.81 1017.62 1018.39 1019.08 1020.00 1020.84 1021.81 1022.79 1023.67 1024.49 1025.34 1025.90
1006.81 1007.26 1007.17 1007.10 1006.35 1006.45 1005.74 1005.48 1005.47 1005.79 1006.17 1006.70 1007.08 1007.39 1007.68 1007.92 1008.34 1008.99 1009.92 1009.90 1010.22 1010.91 1011.49 1011.76 1012.18 1012.59 1013.15 1013.73 1014.15 1014.55 1014.94 1015.74 1016.78 1017.50 1018.46 1019.36 1020.08 1020.86 1021.66 1022.18 1022.68 1023.26 1023.75 1023.95
1006.63 1006.17 1006.39 1005.23 1004.87 1005.03 1005.01 1004.70 1005.20 1005.71 1006.12 1006.85 1007.40 1007.97 1008.06 1008.28 1008.67 1009.38 1010.14 1010.61 1011.10 1011.49 1011.69 1012.23 1012.80 1013.23 1013.75 1014.15 1014.65 1015.19 1015.38 1015.97 1016.99 1018.14 1018.91 1019.57 1020.20 1020.98 1021.65 1022.30 1022.98 1022.97 1023.61 1023.91
Wind_Speed
1 4 8 14 8 4 4 4 5 4 3 4 9 11 18 9 7 10 11 11 16 19 9 9 8 8 7 6 6 6 8 8 7 6 5 4 4 4 5 5 7 7 8 8
4 8 14 4 5 5 3 3 7 7 5 6 11 15 12 8 10 13 18 18 20 12 10 12 10 8 9 9 8 7 8 9 7 5 4 3 5 4 5 5 7 7 7 8
9 6 6 9 5 6 6 7 6 8 5 5 7 11 10 9 11 13 15 21 17 19 17 13 13 13 9 11 11 11 10 10 7 8 8 7 7 6 4 5 5 6 7 9
7 4 6 6 6 9 6 8 6 5 1 6 2 17 7 8 13 8 21 19 15 11 13 15 17 14 14 11 10 11 11 11 9 11 10 13 8 8 4 4 5 6 7 9
9 8 7 5 7 8 8 5 6 1 3 4 2 6 0 4 7 14 21 15 10 14 18 20 21 18 13 11 11 11 12 10 11 10 10 8 9 8 7 7 9 8 7 8
4 0 7 9 3 7 8 6 5 4 1 7 11 9 24 7 9 7 11 6 9 11 13 13 11 12 12 11 13 12 13 11 12 11 9 10 13 14 11 10 9 6 6 6
3 5 3 4 6 3 3 7 2 5 1 10 3 6 18 9 9 9 11 8 8 8 10 11 15 15 14 15 14 12 14 13 12 12 11 12 12 14 15 14 12 13 8 6
9 5 12 8 10 9 8 9 8 8 5 6 2 11 9 9 11 10 8 7 3 7 9 13 15 15 16 16 16 15 15 14 13 13 13 12 13 10 10 10 10 9 8 8
7 7 2 2 2 10 6 7 4 4 2 2 7 9 9 9 13 18 4 3 7 8 9 12 13 14 16 16 17 16 15 13 14 14 13 13 12 13 12 11 7 6 8 8
5 1 1 2 4 3 7 7 3 1 2 7 6 7 10 8 13 9 6 8 7 7 8 9 12 13 13 13 14 13 14 15 15 13 12 12 12 11 11 10 10 11 9 10
5 4 1 4 6 11 4 4 3 5 6 5 4 9 9 6 5 9 9 7 8 9 11 12 10 8 11 12 12 14 13 14 13 13 13 13 12 10 10 10 10 10 10 10
5 5 4 8 3 3 1 8 8 5 6 5 2 20 4 7 4 6 9 5 5 6 8 9 10 10 9 10 10 11 12 14 14 14 14 15 14 14 14 13 12 10 11 9
10 4 3 2 1 3 7 8 15 6 3 10 6 14 3 2 6 6 8 2 6 7 8 8 8 11 13 13 13 14 13 12 12 13 14 14 14 14 14 13 11 11 11 9
9 7 9 10 6 6 8 12 14 16 11 6 24 22 15 5 7 8 5 2 6 8 10 9 10 12 12 12 13 13 12 13 14 14 14 14 14 13 12 12 11 11 11 11
11 11 11 13 4 4 3 12 21 23 26 16 27 23 33 19 13 13 7 6 7 8 11 14 15 13 13 13 12 13 13 12 13 13 14 15 13 12 12 11 11 10 9 8
7 5 8 17 14 8 6 9 21 27 26 24 28 24 24 8 6 5 11 8 9 11 13 12 12 12 15 16 15 14 14 13 13 14 13 12 12 12 12 11 10 11 9 8
7 6 7 24 13 10 9 35 17 15 22 22 24 36 30 10 11 13 13 8 9 12 12 11 16 18 17 18 17 18 15 14 15 14 13 13 14 13 12 12 12 11 11 10
7 17 10 11 7 15 20 4 19 23 25 25 26 31 29 14 15 13 4 6 11 12 12 14 14 14 15 14 14 13 15 15 16 15 14 15 15 14 13 14 14 12 10 10
15 7 11 14 18 11 13 6 10 13 21 25 27 29 29 11 4 14 7 9 12 12 13 12 11 9 11 14 14 14 13 15 15 15 15 16 17 16 15 15 14 11 10 9
8 16 12 4 8 19 11 5 7 7 16 7 20 28 26 5 8 17 2 3 6 7 6 6 8 7 11 11 13 14 14 14 15 15 16 15 16 16 15 14 14 11 10 9
7 6 14 15 10 5 6 5 7 10 9 3 5 13 6 8 10 3 2 3 2 0 3 6 9 12 12 12 14 14 13 15 14 12 12 12 13 14 13 12 10 11 10 8
12 9 7 7 9 11 7 4 13 7 1 3 2 4 5 3 1 2 3 4 4 5 6 4 5 4 5 12 14 14 15 9 11 13 13 12 13 11 11 14 11 10 11 10
3 4 3 7 5 2 8 2 3 2 4 6 4 5 5 7 6 6 6 5 4 4 4 2 6 7 5 8 10 13 10 12 12 13 15 14 14 13 13 15 13 10 11 11
3 4 4 2 4 6 4 4 4 5 2 0 4 6 6 5 6 4 4 4 5 3 4 3 6 6 5 3 4 5 9 11 12 12 12 11 12 12 11 10 10 10 11 10
6 10 6 5 6 7 10 8 6 6 5 5 3 6 6 6 3 4 4 3 4 4 2 3 6 6 6 5 6 6 8 11 11 10 8 9 9 11 10 10 11 12 12 14
5 8 8 9 8 4 7 5 10 10 9 8 7 2 3 5 7 5 4 4 4 5 3 3 3 5 5 5 6 5 6 9 10 8 7 8 8 8 8 7 2 14 9 16
Wind_Direction
62 120 196 210 199 160 151 197 241 247 245 177 233 241 258 225 219 235 236 225 225 222 205 177 179 174 167 165 158 165 153 150 141 131 122 104 104 93 77 77 84 91 108 106
63 225 222 155 173 196 209 240 260 290 234 191 267 258 249 217 225 217 227 227 227 213 183 183 178 175 177 171 171 166 168 160 156 148 115 116 124 88 87 83 71 74 89 96
177 207 157 159 159 169 223 206 231 227 323 248 300 263 230 246 233 243 241 236 226 210 192 182 182 185 173 180 174 173 171 167 156 131 116 101 96 102 90 84 76 63 83 86
239 251 139 163 192 162 235 208 201 241 352 257 12 292 199 227 240 237 249 240 231 193 187 184 181 184 186 182 170 169 169 166 151 149 146 154 144 145 120 102 103 91 88 90
235 169 169 178 196 162 225 137 177 173 201 331 206 285 153 183 249 248 249 246 212 194 186 185 188 185 173 169 170 166 167 161 158 153 155 152 130 110 115 114 108 97 87 84
231 172 161 193 133 161 147 87 59 58 56 268 189 182 287 169 212 251 262 244 211 198 192 186 176 156 163 167 166 167 163 162 159 155 153 151 143 140 137 136 127 121 119 109
155 211 182 150 99 59 118 99 317 323 351 249 350 222 254 308 281 235 256 261 228 183 172 164 161 163 162 172 170 164 163 164 161 154 150 149 149 150 149 152 151 148 145 139
173 270 170 193 182 181 189 158 160 221 214 271 327 242 248 233 265 272 247 261 197 172 173 174 174 168 167 171 171 170 169 166 164 158 153 150 157 156 155 155 153 145 146 144
162 263 163 161 115 148 194 205 170 86 79 354 224 290 291 268 275 266 258 163 222 186 177 172 172 171 169 174 177 175 170 167 167 163 156 161 162 160 160 150 143 139 136 137
197 255 50 158 99 24 156 163 93 27 225 258 275 266 238 276 268 304 253 232 211 174 166 169 172 169 172 175 173 173 171 170 167 162 162 162 162 158 149 146 149 152 148 143
143 150 331 123 204 171 144 177 179 138 154 192 300 257 215 231 265 286 292 236 205 187 181 171 175 177 172 169 172 171 168 166 165 163 161 159 158 150 150 152 154 154 145 145
198 120 171 205 270 209 91 190 168 161 223 241 152 263 180 228 270 287 292 275 191 187 178 166 166 156 159 169 170 175 172 170 172 166 162 164 160 159 161 161 159 153 150 152
167 180 163 227 41 328 210 205 201 117 88 215 172 256 22 290 289 270 279 251 174 165 162 168 167 184 178 178 178 176 176 177 170 164 162 164 166 165 166 162 157 155 151 149
129 166 194 223 180 141 185 196 198 198 213 154 231 265 255 314 300 295 269 228 181 177 175 184 186 191 192 192 187 185 179 172 167 165 169 170 171 169 166 158 156 156 157 153
171 207 202 231 155 148 221 203 204 207 217 203 249 234 255 240 240 246 212 196 183 203 196 196 196 197 189 187 192 187 182 173 171 172 172 173 165 161 155 157 158 148 149 150
187 230 170 249 222 192 223 227 218 215 223 229 246 251 255 199 242 242 241 211 204 215 218 207 199 195 196 193 189 183 185 174 168 171 174 163 158 155 156 154 152 147 145 146
193 184 190 249 218 207 228 235 210 223 227 220 232 239 262 228 224 237 241 214 213 223 220 195 199 198 199 199 188 187 180 163 169 171 165 160 156 159 159 151 151 159 163 159
231 206 197 247 157 217 240 279 219 221 230 222 243 255 258 239 246 249 220 218 231 221 217 210 206 205 199 187 188 177 169 171 172 173 165 160 160 160 159 158 165 163 166 171
227 228 234 227 227 261 285 192 151 169 247 225 224 246 259 244 349 267 206 231 243 225 226 221 207 189 170 173 170 168 170 172 172 173 170 165 166 166 167 170 171 164 162 172
196 225 219 212 231 236 257 195 148 108 246 182 199 234 243 134 237 267 230 225 265 257 249 203 155 135 154 165 160 162 170 172 180 177 175 171 171 168 172 170 168 170 177 179
186 197 223 223 230 261 226 175 139 164 240 235 200 227 157 188 216 177 175 111 116 43 171 142 147 157 159 151 155 166 167 185 178 165 162 163 166 167 167 167 172 168 173 164
182 178 202 214 231 235 158 62 169 208 204 171 183 207 195 231 169 154 176 142 114 99 84 90 102 101 130 157 162 167 185 163 151 146 150 158 166 169 171 179 179 177 173 176
243 205 203 208 215 277 206 139 200 158 158 197 182 194 187 178 192 181 195 174 155 134 123 117 138 126 126 151 169 170 160 152 155 163 176 180 179 180 178 181 179 175 182 187
224 201 211 46 315 256 242 274 236 174 203 217 148 157 173 181 195 210 212 191 157 145 144 139 133 135 151 155 137 131 140 147 161 170 176 174 177 176 178 184 185 188 191 192
199 148 177 260 265 294 258 229 216 214 198 171 173 188 196 179 193 186 208 198 174 150 137 142 153 153 165 153 137 138 135 146 157 158 158 166 174 176 177 188 186 193 199 196
188 181 196 238 199 176 257 247 173 200 192 199 176 238 258 189 190 166 180 178 169 170 139 120 123 130 147 136 132 128 136 145 143 140 152 164 158 170 174 170 129 212 201 208